This is the latest recevied weather packets stored in our database for station/object VE9LJW. If no packets are shown the sender has not sent any weather packets the latest 10 day(s).
| Time | Temp. | Humidity | Pressure | Rain* | Wind** | Luminosity | Snow |
|---|---|---|---|---|---|---|---|
| 1777509729 | 11.67° C | 92% | 1015.8 hPa | 0 mm | - | 0 W/m² | - |
| 1777509424 | 11.67° C | 92% | 1015.9 hPa | 0 mm | - | 0 W/m² | - |
| 1777509122 | 11.67° C | 91% | 1015.7 hPa | 0 mm | - | 0 W/m² | - |
| 1777508819 | 11.67° C | 91% | 1015.7 hPa | 0 mm | - | 0 W/m² | - |
| 1777508516 | 11.67° C | 91% | 1015.5 hPa | 0 mm | - | 0 W/m² | - |
| 1777508213 | 11.67° C | 91% | 1015.7 hPa | 0 mm | - | 0 W/m² | - |
| 1777507910 | 11.67° C | 90% | 1015.6 hPa | 0 mm | - | 0 W/m² | - |
| 1777507607 | 11.67° C | 90% | 1015.7 hPa | 0 mm | - | 0 W/m² | - |
| 1777507304 | 11.67° C | 90% | 1015.8 hPa | 0 mm | - | 0 W/m² | - |
| 1777507001 | 11.67° C | 90% | 1015.5 hPa | 0 mm | - | 0 W/m² | - |
| 1777506698 | 11.67° C | 90% | 1015.4 hPa | 0 mm | - | 0 W/m² | - |
| 1777506394 | 12.22° C | 90% | 1015.4 hPa | 0 mm | - | 0 W/m² | - |
| 1777506091 | 12.22° C | 90% | 1015.3 hPa | 0 mm | - | 0 W/m² | - |
| 1777505786 | 12.22° C | 90% | 1015.3 hPa | 0 mm | - | 0 W/m² | - |
| 1777505484 | 12.22° C | 90% | 1015.4 hPa | 0 mm | - | 0 W/m² | - |
| 1777505180 | 12.22° C | 90% | 1015.3 hPa | 0 mm | - | 0 W/m² | - |
| 1777504877 | 12.22° C | 90% | 1015.1 hPa | 0 mm | - | 0 W/m² | - |
| 1777504574 | 12.22° C | 90% | 1015.3 hPa | 0 mm | - | 4 W/m² | - |
| 1777504269 | 12.78° C | 90% | 1015.3 hPa | 0 mm | - | 5 W/m² | - |
| 1777503965 | 12.78° C | 89% | 1015.3 hPa | 0 mm | - | 7 W/m² | - |
| 1777503662 | 12.78° C | 89% | 1015.4 hPa | 0 mm | - | 10 W/m² | - |
| 1777503359 | 12.78° C | 89% | 1015.3 hPa | 0 mm | - | 7 W/m² | - |
| 1777503055 | 12.78° C | 88% | 1015.4 hPa | 0 mm | - | 10 W/m² | - |
| 1777502753 | 12.78° C | 88% | 1015.3 hPa | 0 mm | - | 9 W/m² | - |
| 1777502449 | 12.78° C | 88% | 1015.4 hPa | 0 mm | - | 11 W/m² | - |
* Rain latest hour (hover to see other rain measurements)
** Current wind speed in m/s (hover to see current wind gust speed)